TimeCDT,TemperatureF,Dew PointF,Humidity,Sea Level PressureIn,VisibilityMPH,Wind Direction,Wind SpeedMPH,Gust SpeedMPH,PrecipitationIn,Events,Conditions,WindDirDegrees,DateUTC
12:52 AM,44.1,32.0,63,29.94,10.0,West,9.2,-,N/A,,Clear,270,2012-09-20 05:52:00
1:52 AM,43.0,30.9,62,29.94,10.0,West,8.1,-,N/A,,Clear,260,2012-09-20 06:52:00
2:52 AM,42.1,30.9,65,29.94,10.0,West,8.1,-,N/A,,Clear,280,2012-09-20 07:52:00
3:52 AM,39.9,30.9,70,29.94,10.0,WNW,8.1,-,N/A,,Clear,290,2012-09-20 08:52:00
4:52 AM,39.9,30.9,70,29.95,10.0,West,9.2,-,N/A,,Clear,280,2012-09-20 09:52:00
5:52 AM,44.1,33.1,65,29.95,10.0,WNW,8.1,-,N/A,,Clear,290,2012-09-20 10:52:00
6:52 AM,46.9,33.1,59,29.98,10.0,WNW,9.2,-,N/A,,Partly Cloudy,290,2012-09-20 11:52:00
8:52 AM,52.0,32.0,47,30.01,10.0,NW,13.8,-,N/A,,Clear,310,2012-09-20 13:52:00
9:52 AM,55.0,33.1,43,30.01,10.0,WNW,9.2,-,N/A,,Clear,300,2012-09-20 14:52:00
10:52 AM,59.0,34.0,39,30.00,10.0,WNW,8.1,-,N/A,,Clear,300,2012-09-20 15:52:00
11:52 AM,63.0,30.0,29,30.00,10.0,WNW,13.8,20.7,N/A,,Clear,300,2012-09-20 16:52:00
12:52 PM,64.9,27.0,24,29.98,10.0,WNW,19.6,25.3,N/A,,Clear,290,2012-09-20 17:52:00
1:52 PM,66.9,26.1,21,29.97,10.0,WNW,19.6,29.9,N/A,,Clear,300,2012-09-20 18:52:00
2:52 PM,66.0,27.0,23,29.96,10.0,WNW,11.5,26.5,N/A,,Clear,290,2012-09-20 19:52:00
3:52 PM,64.9,28.0,25,29.95,10.0,NW,13.8,23.0,N/A,,Clear,310,2012-09-20 20:52:00
4:52 PM,64.0,27.0,25,29.95,10.0,NNW,9.2,-,N/A,,Clear,330,2012-09-20 21:52:00
5:52 PM,64.0,26.1,24,29.94,10.0,WNW,11.5,-,N/A,,Clear,290,2012-09-20 22:52:00
6:52 PM,57.0,28.9,34,29.96,10.0,WNW,4.6,-,N/A,,Clear,300,2012-09-20 23:52:00
7:05 PM,55.4,28.4,36,29.94,2.5,WNW,4.6,-,N/A,,Haze,300,2012-09-21 00:05:00
7:13 PM,55.4,28.4,36,29.94,7.0,WNW,3.5,-,N/A,,Clear,300,2012-09-21 00:13:00
7:52 PM,54.0,30.0,40,29.95,10.0,WSW,3.5,-,N/A,,Clear,250,2012-09-21 00:52:00
8:52 PM,50.0,32.0,50,29.95,10.0,SW,3.5,-,N/A,,Clear,220,2012-09-21 01:52:00
9:52 PM,50.0,34.0,54,29.95,10.0,SW,4.6,-,N/A,,Mostly Cloudy,230,2012-09-21 02:52:00
10:52 PM,50.0,36.0,59,29.94,10.0,Calm,Calm,-,N/A,,Scattered Clouds,0,2012-09-21 03:52:00
11:52 PM,51.1,35.1,54,29.91,10.0,SSW,4.6,-,N/A,,Mostly Cloudy,200,2012-09-21 04:52:00